| time (UTC) | temp C | wind direction | speed KPH | gust KPH | rain 1hr cm | rain 24hr cm | rain mn cm | humidity % | barometer mb |
| 20260507070008 | 10 | 189 | 4.8 | 9.7 | 0.00 | 0.00 | 0.00 | 68 | 1016.8 |
| 20260507064504 | 10 | 139 | 3.2 | 9.7 | 0.00 | 0.00 | 0.00 | 69 | 1016.7 |
| 20260507063004 | 9 | 128 | 3.2 | 8.0 | 0.00 | 0.00 | 0.00 | 69 | 1016.8 |
| 20260507061504 | 8 | 150 | 1.6 | 8.0 | 0.00 | 0.00 | 0.00 | 70 | 1016.7 |
| 20260507060004 | 8 | 150 | 4.8 | 8.0 | 0.00 | 0.00 | 0.00 | 69 | 1016.8 |
| 20260507054504 | 8 | 150 | 4.8 | 9.7 | 0.00 | 0.00 | 0.00 | 69 | 1016.8 |
| 20260507053005 | 7 | 151 | 3.2 | 8.0 | 0.00 | 0.00 | 0.00 | 69 | 1016.8 |
| 20260507051504 | 7 | 151 | 3.2 | 9.7 | 0.00 | 0.00 | 0.00 | 69 | 1016.9 |
| 20260507050005 | 7 | 164 | 3.2 | 8.0 | 0.00 | 0.00 | 0.00 | 69 | 1016.9 |
| 20260507043004 | 7 | 152 | 3.2 | 8.0 | 0.00 | 0.00 | 0.00 | 69 | 1016.8 |
| 20260507041504 | 8 | 152 | 3.2 | 8.0 | 0.00 | 0.00 | 0.00 | 69 | 1016.8 |
| 20260507040004 | 8 | 153 | 3.2 | 8.0 | 0.00 | 0.00 | 0.00 | 69 | 1017.0 |
| 20260507034504 | 8 | 152 | 3.2 | 8.0 | 0.00 | 0.00 | 0.00 | 69 | 1017.0 |
| 20260507033004 | 8 | 148 | 3.2 | 9.7 | 0.00 | 0.00 | 0.00 | 69 | 1017.0 |
| 20260507031504 | 8 | 154 | 3.2 | 8.0 | 0.00 | 0.00 | 0.00 | 69 | 1017.0 |
| 20260507030005 | 8 | 168 | 4.8 | 11.3 | 0.00 | 0.00 | 0.00 | 69 | 1017.1 |
| 20260507024505 | 8 | 157 | 4.8 | 8.0 | 0.00 | 0.00 | 0.00 | 68 | 1016.9 |
| 20260507023004 | 8 | 167 | 3.2 | 8.0 | 0.00 | 0.00 | 0.00 | 68 | 1017.1 |
| 20260507021503 | 8 | 153 | 1.6 | 4.8 | 0.00 | 0.00 | 0.00 | 68 | 1017.2 |
| 20260507020004 | 8 | 153 | 1.6 | 4.8 | 0.00 | 0.00 | 0.00 | 68 | 1017.2 |
| 20260507014504 | 8 | 153 | 3.2 | 9.7 | 0.00 | 0.00 | 0.00 | 68 | 1017.3 |
| 20260507013004 | 9 | 163 | 4.8 | 8.0 | 0.00 | 0.00 | 0.00 | 68 | 1017.3 |
| 20260507010004 | 9 | 152 | 4.8 | 8.0 | 0.00 | 0.00 | 0.00 | 68 | 1017.4 |
| 20260507004504 | 9 | 152 | 3.2 | 8.0 | 0.00 | 0.00 | 0.00 | 68 | 1017.5 |
| 20260507003004 | 9 | 153 | 4.8 | 8.0 | 0.00 | 0.00 | 0.00 | 68 | 1017.7 |
| 20260507001504 | 9 | 152 | 3.2 | 9.7 | 0.00 | 0.00 | 0.00 | 67 | 1017.8 |
| 20260507000004 | 9 | 150 | 4.8 | 11.3 | 0.00 | 0.00 | 0.00 | 67 | 1017.9 |
| 20260506234504 | 10 | 148 | 3.2 | 9.7 | 0.00 | 0.00 | 0.00 | 67 | 1017.9 |
| 20260506231504 | 10 | 150 | 3.2 | 8.0 | 0.00 | 0.00 | 0.00 | 67 | 1018.2 |
| 20260506224504 | 10 | 162 | 4.8 | 4.8 | 0.00 | 0.00 | 0.00 | 66 | 1018.2 |
| 20260506214504 | 10 | 173 | 3.2 | 4.8 | 0.00 | 0.00 | 0.00 | 65 | 1018.4 |
| 20260506213004 | 11 | 173 | 1.6 | 4.8 | 0.00 | 0.00 | 0.00 | 65 | 1018.4 |
| 20260506211504 | 11 | 173 | 1.6 | 4.8 | 0.00 | 0.00 | 0.00 | 64 | 1018.4 |
| 20260506210004 | 11 | 173 | 4.8 | 4.8 | 0.00 | 0.00 | 0.00 | 64 | 1018.3 |
| 20260506203005 | 11 | 241 | 1.6 | 3.2 | 0.00 | 0.00 | 0.00 | 63 | 1018.3 |
| 20260506201504 | 11 | 241 | 1.6 | 4.8 | 0.00 | 0.00 | 0.00 | 63 | 1018.2 |
| 20260506200004 | 12 | 241 | 0.0 | 4.8 | 0.00 | 0.00 | 0.00 | 63 | 1018.0 |
| 20260506194504 | 12 | 241 | 3.2 | 4.8 | 0.00 | 0.00 | 0.00 | 63 | 1017.7 |
| 20260506193005 | 12 | 281 | 3.2 | 4.8 | 0.00 | 0.00 | 0.00 | 63 | 1017.6 |
| 20260506191504 | 13 | 282 | 1.6 | 4.8 | 0.00 | 0.00 | 0.00 | 62 | 1017.5 |
| 20260506190004 | 13 | 294 | 3.2 | 4.8 | 0.00 | 0.00 | 0.00 | 61 | 1017.4 |
| 20260506184504 | 15 | 294 | 1.6 | 4.8 | 0.00 | 0.00 | 0.00 | 59 | 1017.3 |
| 20260506183005 | 15 | 294 | 1.6 | 3.2 | 0.00 | 0.00 | 0.00 | 56 | 1017.4 |
| 20260506181504 | 16 | 294 | 1.6 | 4.8 | 0.00 | 0.00 | 0.00 | 56 | 1017.3 |
| 20260506180005 | 15 | 293 | 3.2 | 9.7 | 0.00 | 0.00 | 0.00 | 57 | 1017.3 |
| 20260506174504 | 16 | 273 | 4.8 | 8.0 | 0.00 | 0.00 | 0.00 | 56 | 1017.4 |
| 20260506173004 | 16 | 276 | 3.2 | 8.0 | 0.00 | 0.00 | 0.00 | 55 | 1017.4 |
| 20260506171504 | 15 | 0 | 0.0 | 3.2 | 0.00 | 0.00 | 0.00 | 57 | 1017.4 |
| 20260506170004 | 15 | 235 | 3.2 | 9.7 | 0.00 | 0.00 | 0.00 | 57 | 1017.4 |
| 20260506164504 | 15 | 249 | 3.2 | 12.9 | 0.00 | 0.00 | 0.00 | 57 | 1017.4 |
| 20260506163004 | 15 | 238 | 3.2 | 11.3 | 0.00 | 0.00 | 0.00 | 57 | 1017.4 |
| 20260506161505 | 15 | 243 | 8.0 | 12.9 | 0.00 | 0.00 | 0.00 | 55 | 1017.4 |
| 20260506154503 | 15 | 267 | 8.0 | 19.3 | 0.00 | 0.00 | 0.00 | 54 | 1017.6 |
| 20260506150005 | 15 | 273 | 8.0 | 16.1 | 0.00 | 0.00 | 0.00 | 58 | 1017.7 |
| 20260506144504 | 15 | 223 | 8.0 | 16.1 | 0.00 | 0.00 | 0.00 | 57 | 1017.7 |
| 20260506143005 | 15 | 264 | 4.8 | 14.5 | 0.00 | 0.00 | 0.00 | 57 | 1017.9 |
| 20260506141504 | 14 | 213 | 6.4 | 11.3 | 0.00 | 0.00 | 0.00 | 58 | 1017.9 |
| 20260506140004 | 14 | 272 | 4.8 | 14.5 | 0.00 | 0.00 | 0.00 | 59 | 1018.1 |
| 20260506134504 | 13 | 220 | 3.2 | 16.1 | 0.00 | 0.00 | 0.00 | 60 | 1018.1 |
| 20260506131504 | 13 | 244 | 8.0 | 22.5 | 0.00 | 0.00 | 0.00 | 61 | 1018.0 |
| 20260506130005 | 13 | 281 | 11.3 | 22.5 | 0.00 | 0.00 | 0.00 | 61 | 1017.8 |
| 20260506124504 | 13 | 220 | 11.3 | 24.1 | 0.00 | 0.00 | 0.00 | 62 | 1017.7 |
| 20260506123005 | 13 | 220 | 8.0 | 19.3 | 0.00 | 0.00 | 0.00 | 62 | 1017.7 |
| 20260506121504 | 13 | 202 | 9.7 | 25.7 | 0.00 | 0.00 | 0.00 | 62 | 1017.7 |
| 20260506120005 | 14 | 269 | 14.5 | 27.4 | 0.00 | 0.00 | 0.00 | 60 | 1017.7 |
| 20260506114505 | 14 | 223 | 8.0 | 19.3 | 0.00 | 0.00 | 0.00 | 59 | 1017.7 |
| 20260506113004 | 14 | 199 | 8.0 | 19.3 | 0.00 | 0.00 | 0.00 | 59 | 1017.7 |
| 20260506111504 | 15 | 217 | 4.8 | 19.3 | 0.00 | 0.00 | 0.00 | 58 | 1017.6 |
| 20260506110004 | 15 | 185 | 8.0 | 19.3 | 0.00 | 0.00 | 0.00 | 57 | 1017.4 |
| 20260506104504 | 15 | 234 | 6.4 | 19.3 | 0.00 | 0.00 | 0.00 | 56 | 1017.4 |
| 20260506103004 | 15 | 214 | 11.3 | 20.9 | 0.00 | 0.00 | 0.00 | 56 | 1017.4 |
| 20260506101504 | 14 | 183 | 8.0 | 16.1 | 0.00 | 0.00 | 0.00 | 58 | 1017.5 |
| 20260506100005 | 13 | 210 | 4.8 | 19.3 | 0.00 | 0.00 | 0.00 | 59 | 1017.5 |
| 20260506094504 | 13 | 178 | 12.9 | 19.3 | 0.00 | 0.00 | 0.00 | 58 | 1017.5 |
| 20260506093004 | 13 | 176 | 11.3 | 19.3 | 0.00 | 0.00 | 0.00 | 59 | 1017.5 |
| 20260506091504 | 13 | 210 | 8.0 | 20.9 | 0.00 | 0.00 | 0.00 | 59 | 1017.5 |
| 20260506084504 | 13 | 170 | 4.8 | 9.7 | 0.00 | 0.00 | 0.00 | 59 | 1017.1 |
| 20260506083004 | 12 | 202 | 8.0 | 22.5 | 0.00 | 0.00 | 0.00 | 59 | 1017.1 |
| 20260506081504 | 12 | 185 | 8.0 | 16.1 | 0.00 | 0.00 | 0.00 | 59 | 1017.1 |
| 20260506073004 | 11 | 0 | 0.0 | 0.0 | 0.00 | 0.00 | 0.00 | 65 | 1016.8 |
| 20260506071504 | 11 | 1 | 0.0 | 4.8 | 0.00 | 0.00 | 0.00 | 65 | 1016.8 |